[[{"header":{"parameterUnit":"m.s-1","parameterCategory":1,"la1":30.2991,"la2":30.254,"lo1":-89.0895,"lo2":-89.0444,"dy":0.0017,"dx":0.0017,"nx":28,"ny":28,"refTime":"2024-07-01T03:00:00:Z","depth":0,"parameterNumber":2,"parameterNumberName":"U-component_of_WINDS"},"data":[0,0,0,0,0,0,0,0,0,0,0,0,0,0,0,0,0,0,0,0,0,0,0,0,0,0,0,0,0,0,0,0,0,0,0,0,0,0,0,0,0,0,0,0,0,0,0,0,0,0,0,0,0,0,0,0,0,0,1.9109,1.911,0,1.917,1.917,1.9171,1.9136,1.9135,1.9133,1.9131,1.9194,1.9197,1.92,0,0,0,0,0,0,0,0,0,0,0,0,0,1.8964,1.8967,1.9109,1.911,1.911,1.9169,1.917,1.9171,1.9137,1.9134,1.9132,1.913,1.9193,1.9196,1.92,0,0,0,0,0,0,0,0,0,0,0,0,0,1.9026,1.8968,1.9109,1.91,1.91,1.9169,1.917,1.9171,1.9137,1.9134,1.9132,1.9129,1.9191,1.9196,1.9201,1.9282,0,0,1.9216,1.9218,0,0,0,0,0,0,0,0,1.9023,1.9032,1.9101,1.9101,1.9101,1.9143,1.9142,1.9208,1.9138,1.9123,1.9131,1.9128,1.9179,1.9184,1.9201,1.9285,1.9287,1.9216,1.9219,1.9221,1.9222,0,0,0,0,0,0,0,1.9018,1.9029,1.9133,1.9102,1.9102,1.9094,1.91,1.9155,1.9164,1.9124,1.9122,1.9129,1.9178,1.9197,1.9203,1.9288,1.9216,1.922,1.9223,1.9225,1.9443,1.9446,0,0,0,0,0,0,1.9015,1.9025,1.9131,1.9135,1.9055,1.9098,1.9105,1.9132,1.9164,1.9166,1.9131,1.9127,1.919,1.9197,1.9205,1.9303,1.9221,1.9226,1.9228,1.9441,1.9444,1.9447,0,0,0,0,0,0,1.9012,1.9024,1.9128,1.9079,1.9092,1.9104,1.9134,1.9134,1.9153,1.9169,1.9171,1.9149,1.9188,1.9198,1.9263,1.9305,1.9228,1.9232,1.9437,1.9442,1.9446,1.9499,0,0,0,0,0,0,1.9008,1.9023,1.9054,1.908,1.9095,1.9186,1.9136,1.9137,1.9161,1.9157,1.9186,1.9188,1.9187,1.9256,1.9268,1.931,1.9236,1.9434,1.9439,1.9444,1.9494,1.9505,1.9514,0,0,0,0,0,1.9003,1.9066,1.9056,1.9069,1.9133,1.9188,1.9196,1.9194,1.9165,1.9196,1.9207,1.9187,1.9298,1.9263,1.9276,1.932,1.9431,1.9438,1.9444,1.9489,1.9503,1.9514,0,0,0,0,0,0,1.9044,1.9069,1.9058,1.9132,1.9158,1.9182,1.9221,1.9208,1.9242,1.9237,1.9232,1.9239,1.9307,1.932,1.9281,1.9401,1.936,1.937,1.939,1.9403,1.9413,1.9409,1.924,0,0,0,0,0,1.9062,1.9104,1.9124,1.9188,1.9201,1.9209,1.9233,1.9229,1.9256,1.9267,1.9282,1.9309,1.935,1.9377,1.9416,1.9496,1.9502,1.9533,1.9543,1.9551,1.9559,1.9604,1.9618,1.9468,1.9468,1.9468,0,0,1.9099,1.9118,1.9145,1.9196,1.9216,1.9261,1.9219,1.9267,1.93,1.9274,1.9337,1.935,1.938,1.9453,1.9486,1.9466,1.9602,1.9559,1.9566,1.957,1.9612,1.9626,1.9639,1.9473,1.9472,1.9471,0,0,1.9189,1.9207,1.9263,1.9284,1.9315,1.932,1.9334,1.936,1.9368,1.9431,1.9413,1.9452,1.9523,1.9546,1.9566,1.9668,1.9652,1.9681,1.9734,1.9778,1.9789,1.98,1.9837,1.985,1.9689,1.9689,1.9689,0,1.9231,1.9297,1.9293,1.9344,1.9368,1.9346,1.9403,1.9424,1.9466,1.9483,1.946,1.9549,1.9568,1.9647,1.9672,1.9689,1.9706,1.9677,1.9788,1.9798,1.9808,1.9843,1.9857,1.9692,1.9692,1.9691,1.9691,0,1.9348,1.9394,1.9435,1.9477,1.9506,1.9559,1.9564,1.9593,1.9587,1.9595,1.9661,1.9683,1.9727,1.9745,1.9739,1.9824,1.9811,1.9788,1.9747,1.9826,1.9859,1.9872,1.9697,1.9696,1.9695,1.9694,0,0,1.9464,1.9505,1.952,1.9539,1.9573,1.9609,1.9662,1.9705,1.9731,1.9761,1.9806,1.9867,1.9847,1.9871,1.9867,1.9906,1.9986,1.9878,1.9879,1.9898,2.0083,2.01,2.0116,1.9976,1.9979,1.9981,2.0081,0,1.9557,1.965,1.9649,1.9735,1.9779,1.976,1.9807,1.9833,1.9842,1.9881,1.9891,1.9935,1.9905,1.9919,1.9956,1.9969,2.0023,1.9961,2.0019,2.0021,2.0012,2.0133,2.0151,2.0244,2.0094,2.0096,2.0097,0,1.9677,1.9712,1.9803,1.9832,1.985,1.9892,1.9932,1.9969,1.9999,2.0003,2.0031,2.0022,2.0078,2.0035,2.0112,2.007,2.0093,2.0103,2.0107,2.0112,2.0064,2.0142,2.0274,2.0288,2.0118,2.0116,2.0114,0,1.9754,1.9824,1.9888,1.9905,1.994,1.997,1.9986,2.0013,2.004,2.0075,2.0093,2.0134,2.0157,2.0189,2.0193,2.0161,2.027,2.0228,2.0276,2.0276,2.03,2.0298,2.0437,2.0315,2.0314,2.0314,2.0314,0,1.9858,1.9914,1.9923,1.9962,2.0025,2.0024,2.0087,2.0101,2.0126,2.0168,2.0154,2.0194,2.0196,2.0237,2.0241,2.0304,2.0315,2.032,2.032,2.0322,2.0321,2.0337,2.0331,2.0318,2.0317,2.0316,2.0316,0,1.9954,1.9962,2.003,2.0059,2.0067,2.0113,2.0137,2.0175,2.0184,2.0237,2.025,2.0264,2.0312,2.0319,2.0375,2.0377,2.0454,2.0447,2.0444,2.0443,2.0491,2.0487,2.0646,2.0667,2.053,2.0532,2.0533,0,2.002,2.0063,2.0096,2.0124,2.0142,2.0186,2.0213,2.0215,2.0244,2.0282,2.0316,2.0363,2.04,2.0478,2.0494,2.0537,2.0532,2.0585,2.0538,2.0539,2.0533,2.0531,2.0536,2.0593,2.0595,2.0596,2.0597,0,2.0136,2.0139,2.0178,2.022,2.0254,2.0287,2.0318,2.0341,2.0347,2.038,2.043,2.0459,2.0517,2.0564,2.0608,2.0625,2.0613,2.0612,2.0625,2.0627,2.0624,2.0627,2.0469,2.0608,2.0607,2.0606,2.0605,2.0605,2.022,2.0258,2.0288,2.0333,2.0357,2.0387,2.0424,2.0438,2.048,2.0527,2.0526,2.058,2.0611,2.0668,2.0688,2.0732,2.0714,2.0734,2.0739,2.0744,2.0749,2.0617,2.074,2.0739,2.0739,2.0739,2.0738,0,2.0336,2.0354,2.0396,2.0441,2.0477,2.0463,2.0497,2.0528,2.0577,2.0606,2.0644,2.0702,2.0748,2.0768,2.0813,2.0844,2.084,2.0857,2.0854,2.0859,2.0761,2.0745,2.0859,2.0859,2.0859,2.0859,2.0859,2.0859,2.04,2.0465,2.0471,2.0547,2.0566,2.0619,2.064,2.0668,2.0692,2.0757,2.0796,2.0808,2.0835,2.0883,2.0925,2.093,2.0947,2.0967,2.0969,2.0878,2.0865,2.0854,2.0839,2.097,2.097,2.1063,2.1064,2.1064]},{"header":{"parameterUnit":"m.s-1","parameterCategory":1,"la1":30.2991,"la2":30.254,"lo1":-89.0895,"lo2":-89.0444,"dy":0.0017,"dx":0.0017,"nx":28,"ny":28,"refTime":"2024-07-01T03:00:00:Z","depth":0,"parameterNumber":3,"parameterNumberName":"V-component_of_WINDS"},"data":[0,0,0,0,0,0,0,0,0,0,0,0,0,0,0,0,0,0,0,0,0,0,0,0,0,0,0,0,0,0,0,0,0,0,0,0,0,0,0,0,0,0,0,0,0,0,0,0,0,0,0,0,0,0,0,0,0,0,-2.3963,-2.3965,0,-2.4088,-2.409,-2.4091,-2.4118,-2.4117,-2.4116,-2.4115,-2.4242,-2.4246,-2.425,0,0,0,0,0,0,0,0,0,0,0,0,0,-2.3747,-2.3751,-2.3963,-2.3965,-2.3966,-2.4088,-2.409,-2.4091,-2.4118,-2.4117,-2.4116,-2.4115,-2.424,-2.4245,-2.425,0,0,0,0,0,0,0,0,0,0,0,0,0,-2.3853,-2.3752,-2.3963,-2.3994,-2.3998,-2.4088,-2.409,-2.4092,-2.4118,-2.4117,-2.4115,-2.4114,-2.4239,-2.4245,-2.4251,-2.4318,0,0,-2.427,-2.4273,0,0,0,0,0,0,0,0,-2.3847,-2.3861,-2.3988,-2.3992,-2.3997,-2.4086,-2.406,-2.4168,-2.4118,-2.4073,-2.4115,-2.4113,-2.4191,-2.4201,-2.4227,-2.4324,-2.4329,-2.4271,-2.4275,-2.4278,-2.4279,0,0,0,0,0,0,0,-2.384,-2.3856,-2.4013,-2.399,-2.3995,-2.4002,-2.4016,-2.4081,-2.4138,-2.4076,-2.4079,-2.4093,-2.4193,-2.4221,-2.4231,-2.4331,-2.4271,-2.4276,-2.428,-2.4283,-2.4489,-2.449,0,0,0,0,0,0,-2.3827,-2.385,-2.4009,-2.4016,-2.3917,-2.4007,-2.4022,-2.4059,-2.4137,-2.4148,-2.4094,-2.4094,-2.4211,-2.4223,-2.4235,-2.4319,-2.4277,-2.4283,-2.4287,-2.4487,-2.4489,-2.4491,0,0,0,0,0,0,-2.3822,-2.3841,-2.4004,-2.3934,-2.3955,-2.4012,-2.4053,-2.4062,-2.409,-2.4151,-2.4161,-2.4113,-2.4211,-2.4226,-2.4297,-2.4323,-2.4286,-2.4292,-2.4485,-2.4488,-2.449,-2.4486,0,0,0,0,0,0,-2.3816,-2.3839,-2.3865,-2.3934,-2.3959,-2.4063,-2.4055,-2.4065,-2.4101,-2.4102,-2.4171,-2.4181,-2.4211,-2.4288,-2.4304,-2.4331,-2.4297,-2.4483,-2.4486,-2.4489,-2.4484,-2.4488,-2.4491,0,0,0,0,0,-2.3808,-2.3858,-2.3866,-2.3885,-2.3992,-2.4065,-2.4079,-2.4113,-2.4103,-2.413,-2.4169,-2.4178,-2.4318,-2.4295,-2.4313,-2.4343,-2.4482,-2.4485,-2.4489,-2.4482,-2.4487,-2.4491,0,0,0,0,0,0,-2.379,-2.3868,-2.3877,-2.3951,-2.4001,-2.4069,-2.4103,-2.4117,-2.417,-2.4169,-2.4208,-2.4223,-2.4292,-2.4325,-2.4297,-2.4412,-2.4399,-2.4407,-2.4388,-2.4393,-2.4397,-2.4387,-2.4302,0,0,0,0,0,-2.3795,-2.3848,-2.3913,-2.3972,-2.3996,-2.4046,-2.4079,-2.4101,-2.4154,-2.4175,-2.4219,-2.427,-2.4326,-2.4361,-2.4416,-2.4489,-2.4505,-2.4519,-2.4523,-2.4525,-2.4531,-2.4573,-2.458,-2.4503,-2.4503,-2.4503,0,0,-2.3804,-2.3854,-2.3884,-2.3969,-2.4011,-2.4064,-2.4063,-2.412,-2.416,-2.4184,-2.4253,-2.4288,-2.4347,-2.442,-2.4454,-2.4449,-2.4556,-2.453,-2.4532,-2.4536,-2.4577,-2.4585,-2.4591,-2.4506,-2.4505,-2.4505,0,0,-2.385,-2.3892,-2.3946,-2.3988,-2.4051,-2.4084,-2.4097,-2.4164,-2.4188,-2.4259,-2.4277,-2.4326,-2.4421,-2.4463,-2.4496,-2.456,-2.457,-2.4576,-2.4595,-2.4635,-2.4641,-2.4647,-2.4669,-2.4677,-2.4582,-2.4582,-2.4582,0,-2.3854,-2.3936,-2.3972,-2.4029,-2.4066,-2.409,-2.4145,-2.4184,-2.4261,-2.4286,-2.428,-2.44,-2.4442,-2.4525,-2.4541,-2.4567,-2.4583,-2.4568,-2.4638,-2.4644,-2.4649,-2.4671,-2.4679,-2.4582,-2.4582,-2.4582,-2.4582,0,-2.3938,-2.3994,-2.4031,-2.4105,-2.4147,-2.4202,-2.4247,-2.4284,-2.4303,-2.4337,-2.4409,-2.446,-2.4526,-2.4548,-2.4566,-2.4634,-2.4629,-2.463,-2.4618,-2.4656,-2.4677,-2.4686,-2.4583,-2.4582,-2.4582,-2.4582,0,0,-2.3973,-2.4069,-2.4081,-2.4116,-2.4188,-2.4233,-2.429,-2.4355,-2.4386,-2.4439,-2.4487,-2.4568,-2.457,-2.4608,-2.4632,-2.4667,-2.4714,-2.4664,-2.4666,-2.4671,-2.4792,-2.479,-2.4799,-2.4723,-2.4724,-2.4726,-2.4787,0,-2.4027,-2.4129,-2.4165,-2.4249,-2.4302,-2.4328,-2.4377,-2.4427,-2.446,-2.451,-2.4547,-2.4603,-2.4601,-2.4625,-2.4661,-2.4701,-2.4739,-2.4697,-2.4768,-2.477,-2.4751,-2.481,-2.4808,-2.4863,-2.4795,-2.4797,-2.4798,0,-2.4102,-2.4158,-2.4248,-2.4314,-2.4338,-2.4382,-2.4445,-2.4492,-2.455,-2.4571,-2.4615,-2.4637,-2.4697,-2.4683,-2.4767,-2.4738,-2.4769,-2.4793,-2.4796,-2.4803,-2.4785,-2.4818,-2.4882,-2.489,-2.4811,-2.481,-2.4809,0,-2.4119,-2.4216,-2.4282,-2.4311,-2.4391,-2.4421,-2.4456,-2.4512,-2.4549,-2.4604,-2.4628,-2.469,-2.4723,-2.477,-2.4808,-2.4794,-2.4889,-2.4877,-2.4908,-2.4907,-2.4926,-2.4924,-2.4994,-2.4947,-2.4947,-2.4947,-2.4947,0,-2.4174,-2.4228,-2.4291,-2.4331,-2.4393,-2.4434,-2.4494,-2.453,-2.458,-2.4628,-2.4654,-2.4699,-2.4746,-2.4798,-2.4828,-2.4893,-2.4908,-2.4927,-2.4934,-2.4924,-2.4922,-2.4945,-2.4941,-2.4949,-2.4949,-2.4948,-2.4948,0,-2.4202,-2.4246,-2.4321,-2.439,-2.4409,-2.4452,-2.4511,-2.4552,-2.4587,-2.4648,-2.4665,-2.472,-2.4782,-2.4824,-2.4904,-2.4924,-2.4994,-2.5001,-2.4975,-2.4978,-2.5007,-2.5003,-2.5094,-2.5108,-2.5052,-2.5052,-2.5053,0,-2.4234,-2.4277,-2.4352,-2.4386,-2.4421,-2.4476,-2.4515,-2.4557,-2.4596,-2.4665,-2.4698,-2.4761,-2.4814,-2.4912,-2.4959,-2.502,-2.5028,-2.5056,-2.5037,-2.5026,-2.5028,-2.5025,-2.5029,-2.5058,-2.5058,-2.5059,-2.5059,0,-2.4287,-2.4307,-2.4361,-2.4424,-2.4469,-2.452,-2.4572,-2.4599,-2.465,-2.4692,-2.4756,-2.4798,-2.4879,-2.4942,-2.5008,-2.5043,-2.506,-2.5065,-2.5075,-2.5065,-2.5048,-2.5057,-2.4982,-2.5062,-2.5062,-2.5061,-2.5061,-2.5061,-2.4317,-2.4356,-2.4416,-2.4476,-2.4519,-2.4567,-2.4609,-2.465,-2.4704,-2.4774,-2.4796,-2.4862,-2.492,-2.501,-2.5047,-2.5099,-2.5097,-2.5112,-2.5116,-2.5119,-2.5118,-2.504,-2.5112,-2.5112,-2.5111,-2.5111,-2.5111,0,-2.437,-2.441,-2.4465,-2.4537,-2.4585,-2.4597,-2.4655,-2.4694,-2.4752,-2.4805,-2.4857,-2.4931,-2.4992,-2.5045,-2.5109,-2.5141,-2.515,-2.5156,-2.5154,-2.5162,-2.5117,-2.5101,-2.5148,-2.5148,-2.5148,-2.5148,-2.5148,-2.5148,-2.4404,-2.447,-2.4498,-2.4587,-2.4627,-2.4692,-2.4724,-2.4769,-2.4811,-2.4892,-2.4944,-2.4978,-2.5031,-2.5099,-2.5157,-2.517,-2.5192,-2.5197,-2.5212,-2.5169,-2.5165,-2.5161,-2.5146,-2.5201,-2.5202,-2.5253,-2.5253,-2.5254]}]]